contact:dominique.lefevre@mio.osupytheas.fr, maurice.libes@osupytheas.fr, didier.mallarino@osupytheas.fr
Project:EMSO http://www.emso-fr.org/EMSO-France
Depth: 2436.0 m
Title:EMSO Ligure Ouest : Data MII capteur AQUADOPP
Date,Latitude,Longitude,X_East,Y_North,Z_Up,Amplitude_X,Amplitude_Y,Amplitude_Z,Batterie,SoundSpeed,Heading,Pitch,Roll,Pressure,TIS,Speed,Direction
, degrees North, degrees East, m.s-1, m.s-1,m.s-1, 1, 1, 1, Volt, m.s-1, degree, degree, degree, dbar, degree_C, m.s-1, degree
2022-03-02T00:04:03,42.805,6.029,-0.019,-0.005,-0.015,104.0,103.0,101.0,13.4,1505.2,329.6,-0.7,1.9,2470.637,13.29,0.019,255.3
2022-03-02T00:07:03,42.805,6.029,0.028,0.01,-0.002,103.0,104.0,101.0,13.3,1505.2,326.3,-0.7,1.8,2470.603,13.29,0.029,70.4
2022-03-02T00:10:03,42.805,6.029,-0.021,-0.003,0.013,103.0,105.0,101.0,13.3,1505.2,327.7,-0.8,1.8,2470.581,13.29,0.021,261.9
2022-03-02T00:13:03,42.805,6.029,-0.001,0.0,0.01,103.0,104.0,102.0,13.4,1505.2,328.7,-0.8,1.9,2470.571,13.29,0.001,270.0
2022-03-02T00:16:03,42.805,6.029,0.016,0.005,0.021,103.0,105.0,103.0,13.3,1505.2,329.3,-0.8,1.8,2470.591,13.29,0.016,72.6
2022-03-02T00:19:03,42.805,6.029,-0.015,0.001,0.0,105.0,103.0,102.0,13.3,1505.2,327.8,-0.7,1.8,2470.567,13.29,0.015,273.8
2022-03-02T00:22:03,42.805,6.029,0.011,0.003,0.008,103.0,102.0,102.0,13.3,1505.2,323.5,-0.8,1.8,2470.571,13.29,0.011,74.7
2022-03-02T00:25:03,42.805,6.029,-0.001,0.009,0.012,103.0,103.0,102.0,13.3,1505.2,330.4,-0.8,1.8,2470.58,13.29,0.009,353.7
2022-03-02T00:28:03,42.805,6.029,0.001,0.016,0.003,103.0,105.0,101.0,13.4,1505.2,330.6,-0.8,1.8,2470.612,13.29,0.016,3.6
2022-03-02T00:31:03,42.805,6.029,-0.001,-0.007,-0.054,104.0,105.0,102.0,13.4,1505.2,324.9,-0.8,1.8,2470.562,13.29,0.007,188.1
2022-03-02T00:34:03,42.805,6.029,0.002,0.002,0.007,105.0,103.0,103.0,13.4,1505.2,325.0,-0.8,1.8,2470.559,13.29,0.002,45.0
2022-03-02T00:37:03,42.805,6.029,-0.001,0.005,0.014,104.0,105.0,102.0,13.4,1505.2,331.2,-0.7,1.8,2470.593,13.29,0.005,348.7
2022-03-02T00:40:03,42.805,6.029,-0.014,-0.02,-0.012,104.0,103.0,102.0,13.4,1505.2,330.7,-0.8,1.8,2470.553,13.29,0.024,215.0
2022-03-02T00:43:03,42.805,6.029,-0.007,-0.006,0.028,104.0,104.0,102.0,13.4,1505.2,328.4,-0.8,1.8,2470.582,13.29,0.009,229.4
2022-03-02T00:46:03,42.805,6.029,0.002,0.013,0.011,103.0,105.0,101.0,13.4,1505.2,325.6,-0.7,1.8,2470.549,13.29,0.013,8.7
2022-03-02T00:49:03,42.805,6.029,0.012,-0.006,0.003,104.0,104.0,103.0,13.3,1505.2,329.3,-0.8,1.8,2470.582,13.29,0.013,116.6
2022-03-02T00:52:03,42.805,6.029,0.01,0.014,0.009,104.0,104.0,101.0,13.3,1505.2,324.4,-0.7,1.8,2470.588,13.29,0.017,35.5
2022-03-02T00:55:03,42.805,6.029,0.01,-0.012,-0.01,104.0,104.0,104.0,13.4,1505.2,326.7,-0.8,1.8,2470.546,13.29,0.015,140.2
2022-03-02T00:58:03,42.805,6.029,0.008,-0.017,0.003,104.0,105.0,102.0,13.4,1505.2,325.6,-0.8,1.8,2470.517,13.29,0.018,154.8
2022-03-02T01:04:03,42.805,6.029,0.029,0.0,0.007,105.0,106.0,104.0,13.4,1505.2,324.6,-0.8,1.8,2470.567,13.28,0.028,90.0
2022-03-02T01:07:03,42.805,6.029,0.019,-0.014,0.036,105.0,104.0,103.0,13.3,1505.2,329.4,-0.7,1.8,2470.582,13.28,0.023,126.4
2022-03-02T01:10:03,42.805,6.029,0.028,-0.034,0.031,104.0,106.0,104.0,13.4,1505.2,326.4,-0.8,1.8,2470.58,13.28,0.044,140.5
2022-03-02T01:13:03,42.805,6.029,0.01,-0.017,-0.034,103.0,104.0,102.0,13.4,1505.2,332.1,-0.7,1.8,2470.587,13.28,0.019,149.5
2022-03-02T01:16:03,42.805,6.029,-0.005,0.001,0.004,103.0,104.0,103.0,13.4,1505.2,331.3,-0.8,1.8,2470.545,13.28,0.005,281.3
2022-03-02T01:19:03,42.805,6.029,0.002,0.001,-0.023,105.0,104.0,102.0,13.4,1505.2,326.5,-0.8,1.8,2470.559,13.28,0.002,63.4
2022-03-02T01:22:03,42.805,6.029,0.011,-0.018,-0.004,105.0,103.0,103.0,13.4,1505.2,328.3,-0.7,1.8,2470.563,13.29,0.021,148.6
2022-03-02T01:25:03,42.805,6.029,0.019,0.004,-0.003,104.0,103.0,102.0,13.4,1505.2,326.7,-0.8,1.8,2470.591,13.29,0.019,78.1
2022-03-02T01:28:03,42.805,6.029,0.002,-0.021,0.008,105.0,104.0,102.0,13.3,1505.2,323.7,-0.8,1.8,2470.574,13.29,0.021,174.6
2022-03-02T01:31:03,42.805,6.029,0.017,-0.01,-0.014,104.0,104.0,104.0,13.4,1505.2,329.0,-0.8,1.8,2470.542,13.29,0.019,120.5
2022-03-02T01:34:03,42.805,6.029,-0.014,0.019,0.0,104.0,105.0,101.0,13.4,1505.2,323.3,-0.7,1.8,2470.589,13.29,0.023,323.6
2022-03-02T01:37:03,42.805,6.029,-0.005,-0.031,0.001,102.0,104.0,103.0,13.4,1505.2,326.9,-0.7,1.8,2470.555,13.29,0.031,189.2
2022-03-02T01:40:03,42.805,6.029,0.004,0.011,0.028,104.0,103.0,102.0,13.3,1505.2,332.5,-0.7,1.8,2470.584,13.29,0.011,20.0
2022-03-02T01:43:03,42.805,6.029,0.018,-0.018,0.011,104.0,103.0,102.0,13.3,1505.2,326.1,-0.8,1.8,2470.572,13.29,0.025,135.0
2022-03-02T01:46:03,42.805,6.029,-0.003,-0.002,0.024,104.0,103.0,102.0,13.4,1505.2,324.2,-0.8,1.8,2470.543,13.29,0.003,236.3
2022-03-02T01:49:03,42.805,6.029,-0.001,-0.001,-0.008,104.0,104.0,101.0,13.4,1505.2,331.7,-0.7,1.8,2470.547,13.29,0.001,225.0
2022-03-02T01:52:03,42.805,6.029,-0.032,0.0,-0.007,104.0,103.0,102.0,13.4,1505.2,326.6,-0.8,1.8,2470.569,13.29,0.032,270.0
2022-03-02T01:55:03,42.805,6.029,0.017,-0.012,-0.002,104.0,103.0,101.0,13.4,1505.2,327.8,-0.8,1.8,2470.545,13.29,0.02,125.2
2022-03-02T01:58:03,42.805,6.029,0.022,-0.015,0.005,103.0,104.0,103.0,13.4,1505.2,324.0,-0.7,1.8,2470.54,13.29,0.026,124.3
2022-03-02T02:04:03,42.805,6.029,-0.008,-0.007,-0.023,104.0,105.0,104.0,13.4,1505.2,328.8,-0.8,1.8,2470.629,13.28,0.01,228.8
2022-03-02T02:07:03,42.805,6.029,0.022,-0.016,0.003,103.0,104.0,103.0,13.3,1505.2,325.6,-0.8,1.8,2470.593,13.28,0.027,126.0
2022-03-02T02:10:03,42.805,6.029,0.007,0.006,-0.018,105.0,104.0,101.0,13.3,1505.2,324.9,-0.8,1.8,2470.595,13.28,0.009,49.4
2022-03-02T02:13:03,42.805,6.029,0.006,-0.007,-0.024,102.0,106.0,102.0,13.4,1505.2,326.1,-0.8,1.8,2470.577,13.28,0.009,139.4
2022-03-02T02:16:03,42.805,6.029,0.014,-0.016,0.021,104.0,103.0,102.0,13.4,1505.2,328.8,-0.8,1.9,2470.607,13.29,0.021,138.8
2022-03-02T02:19:03,42.805,6.029,0.003,-0.022,-0.017,103.0,104.0,102.0,13.4,1505.2,326.5,-0.7,1.8,2470.573,13.29,0.022,172.2
2022-03-02T02:22:03,42.805,6.029,0.006,0.002,0.006,104.0,103.0,102.0,13.4,1505.2,329.2,-0.8,1.8,2470.603,13.29,0.006,71.6
2022-03-02T02:25:03,42.805,6.029,-0.012,0.017,-0.003,103.0,103.0,102.0,13.4,1505.2,327.7,-0.8,1.8,2470.586,13.29,0.02,324.8
2022-03-02T02:28:03,42.805,6.029,-0.017,-0.002,0.009,104.0,104.0,102.0,13.3,1505.2,325.6,-0.7,1.8,2470.557,13.29,0.017,263.3
2022-03-02T02:31:03,42.805,6.029,0.001,-0.006,-0.005,104.0,103.0,102.0,13.3,1505.2,332.0,-0.7,1.8,2470.564,13.29,0.006,170.5
2022-03-02T02:34:03,42.805,6.029,-0.004,0.006,-0.004,104.0,104.0,101.0,13.4,1505.2,327.6,-0.7,1.8,2470.569,13.29,0.007,326.3
2022-03-02T02:37:03,42.805,6.029,-0.002,0.006,-0.006,103.0,103.0,102.0,13.3,1505.2,326.6,-0.8,1.8,2470.596,13.29,0.006,341.6
2022-03-02T02:40:03,42.805,6.029,-0.009,-0.006,-0.036,104.0,104.0,102.0,13.4,1505.2,328.2,-0.8,1.8,2470.576,13.29,0.01,236.3
2022-03-02T02:43:03,42.805,6.029,-0.006,-0.018,-0.036,104.0,103.0,102.0,13.3,1505.2,325.5,-0.7,1.8,2470.592,13.29,0.018,198.4
2022-03-02T02:46:03,42.805,6.029,-0.012,0.0,0.005,104.0,104.0,101.0,13.4,1505.2,326.8,-0.8,1.8,2470.565,13.29,0.012,270.0
2022-03-02T02:49:03,42.805,6.029,0.008,0.013,0.024,105.0,103.0,102.0,13.3,1505.2,330.2,-0.7,1.8,2470.58,13.29,0.015,31.6
2022-03-02T02:52:03,42.805,6.029,0.011,-0.011,-0.023,106.0,105.0,103.0,13.4,1505.2,329.9,-0.8,1.8,2470.616,13.29,0.015,135.0
2022-03-02T02:55:03,42.805,6.029,0.007,-0.01,-0.043,104.0,103.0,102.0,13.4,1505.2,326.0,-0.7,1.8,2470.593,13.29,0.012,145.0
2022-03-02T02:58:03,42.805,6.029,-0.002,-0.01,-0.012,104.0,104.0,102.0,13.4,1505.2,328.6,-0.8,1.8,2470.561,13.29,0.01,191.3
2022-03-02T03:04:03,42.805,6.029,-0.02,-0.009,-0.004,103.0,104.0,102.0,13.3,1505.2,325.6,-0.8,1.8,2470.653,13.28,0.021,245.8
2022-03-02T03:07:03,42.805,6.029,0.0,-0.014,-0.017,103.0,105.0,102.0,13.4,1505.2,325.4,-0.8,1.8,2470.638,13.28,0.014,180.0
2022-03-02T03:10:03,42.805,6.029,-0.01,-0.009,-0.015,103.0,104.0,102.0,13.4,1505.2,326.0,-0.8,1.8,2470.656,13.28,0.013,228.0
2022-03-02T03:13:03,42.805,6.029,-0.002,-0.006,-0.001,103.0,103.0,101.0,13.4,1505.2,324.3,-0.7,1.8,2470.621,13.28,0.006,198.4
2022-03-02T03:16:03,42.805,6.029,0.021,-0.041,-0.014,104.0,103.0,102.0,13.3,1505.2,328.5,-0.8,1.8,2470.654,13.29,0.046,152.9
2022-03-02T03:19:03,42.805,6.029,-0.012,-0.015,-0.016,103.0,103.0,102.0,13.4,1505.2,327.2,-0.8,1.8,2470.626,13.29,0.019,218.7
2022-03-02T03:22:03,42.805,6.029,0.017,-0.022,-0.022,104.0,103.0,102.0,13.3,1505.2,325.6,-0.8,1.8,2470.63,13.29,0.027,142.3
2022-03-02T03:25:03,42.805,6.029,0.004,-0.01,-0.006,104.0,103.0,103.0,13.3,1505.2,327.5,-0.8,1.8,2470.634,13.29,0.01,158.2
2022-03-02T03:28:03,42.805,6.029,0.019,-0.022,-0.007,105.0,103.0,102.0,13.3,1505.2,330.2,-0.8,1.8,2470.627,13.29,0.029,139.2
2022-03-02T03:31:03,42.805,6.029,-0.017,-0.01,-0.017,104.0,105.0,102.0,13.3,1505.2,327.8,-0.7,1.8,2470.608,13.29,0.019,239.5
2022-03-02T03:34:03,42.805,6.029,0.02,-0.016,-0.025,106.0,103.0,102.0,13.3,1505.2,323.8,-0.7,1.8,2470.671,13.29,0.025,128.7
2022-03-02T03:37:03,42.805,6.029,0.0,-0.03,-0.006,105.0,103.0,103.0,13.3,1505.2,329.0,-0.7,1.8,2470.641,13.29,0.03,180.0
2022-03-02T03:40:03,42.805,6.029,-0.004,-0.012,-0.033,104.0,103.0,103.0,13.4,1505.2,331.4,-0.8,1.8,2470.627,13.29,0.012,198.4
2022-03-02T03:43:03,42.805,6.029,-0.016,-0.012,-0.024,106.0,103.0,101.0,13.4,1505.2,328.9,-0.7,1.8,2470.638,13.29,0.02,233.1
2022-03-02T03:46:03,42.805,6.029,0.001,-0.019,-0.003,104.0,104.0,102.0,13.4,1505.2,332.3,-0.8,1.8,2470.65,13.29,0.019,177.0
2022-03-02T03:49:03,42.805,6.029,0.012,-0.024,-0.014,104.0,103.0,102.0,13.4,1505.2,327.0,-0.7,1.8,2470.639,13.29,0.026,153.4
2022-03-02T03:52:03,42.805,6.029,0.007,-0.011,-0.012,105.0,104.0,102.0,13.4,1505.2,324.3,-0.7,1.8,2470.666,13.29,0.013,147.5
2022-03-02T03:55:03,42.805,6.029,-0.012,-0.007,-0.023,103.0,103.0,102.0,13.4,1505.2,331.6,-0.7,1.8,2470.686,13.29,0.013,239.7
2022-03-02T03:58:03,42.805,6.029,-0.001,-0.007,0.011,105.0,104.0,102.0,13.4,1505.2,332.0,-0.8,1.9,2470.696,13.29,0.007,188.1
2022-03-02T04:04:03,42.805,6.029,-0.006,-0.004,0.013,104.0,104.0,102.0,13.3,1505.2,324.7,-0.8,1.8,2470.735,13.28,0.007,236.3
2022-03-02T04:07:03,42.805,6.029,-0.006,-0.018,-0.023,104.0,104.0,102.0,13.4,1505.2,329.6,-0.8,1.8,2470.703,13.28,0.018,198.4
2022-03-02T04:10:03,42.805,6.029,-0.006,-0.007,-0.023,105.0,103.0,102.0,13.3,1505.2,331.9,-0.8,1.8,2470.726,13.28,0.009,220.6
2022-03-02T04:13:03,42.805,6.029,-0.007,-0.024,0.014,103.0,104.0,102.0,13.4,1505.2,331.4,-0.7,1.8,2470.695,13.28,0.025,196.3
2022-03-02T04:16:03,42.805,6.029,0.009,-0.009,-0.007,104.0,104.0,102.0,13.3,1505.2,330.9,-0.8,1.8,2470.71,13.28,0.012,135.0
2022-03-02T04:19:03,42.805,6.029,-0.008,-0.019,-0.021,103.0,104.0,102.0,13.3,1505.2,330.6,-0.8,1.8,2470.695,13.28,0.02,202.8
2022-03-02T04:22:03,42.805,6.029,0.006,-0.019,-0.016,103.0,104.0,102.0,13.4,1505.2,328.1,-0.7,1.8,2470.733,13.28,0.019,162.5
2022-03-02T04:25:03,42.805,6.029,-0.004,-0.005,0.004,104.0,103.0,102.0,13.4,1505.2,328.1,-0.8,1.8,2470.683,13.28,0.006,218.7
2022-03-02T04:28:03,42.805,6.029,0.0,-0.008,0.011,103.0,105.0,102.0,13.3,1505.2,324.2,-0.7,1.8,2470.718,13.28,0.008,180.0
2022-03-02T04:31:03,42.805,6.029,-0.005,-0.005,-0.006,104.0,104.0,103.0,13.3,1505.2,326.1,-0.8,1.8,2470.698,13.28,0.007,225.0
2022-03-02T04:34:03,42.805,6.029,-0.009,-0.009,-0.031,106.0,104.0,102.0,13.4,1505.2,326.2,-0.8,1.8,2470.724,13.28,0.012,225.0
2022-03-02T04:37:03,42.805,6.029,-0.016,-0.032,-0.016,104.0,103.0,102.0,13.4,1505.2,323.9,-0.7,1.8,2470.704,13.28,0.035,206.6
2022-03-02T04:40:03,42.805,6.029,0.015,-0.023,0.005,103.0,104.0,103.0,13.4,1505.2,326.2,-0.8,1.8,2470.739,13.29,0.027,146.9
2022-03-02T04:43:03,42.805,6.029,0.024,-0.028,-0.012,103.0,104.0,102.0,13.3,1505.2,327.9,-0.8,1.8,2470.749,13.29,0.036,139.4
2022-03-02T04:46:03,42.805,6.029,-0.008,-0.025,-0.037,104.0,105.0,103.0,13.3,1505.2,323.8,-0.8,1.8,2470.746,13.29,0.026,197.7
2022-03-02T04:49:03,42.805,6.029,-0.014,-0.023,-0.031,105.0,104.0,101.0,13.4,1505.2,324.1,-0.8,1.8,2470.745,13.29,0.026,211.3
2022-03-02T04:52:03,42.805,6.029,0.01,-0.017,-0.014,104.0,105.0,101.0,13.3,1505.2,323.4,-0.8,1.8,2470.757,13.29,0.019,149.5
2022-03-02T04:55:03,42.805,6.029,0.01,-0.021,0.007,104.0,105.0,103.0,13.4,1505.2,329.6,-0.7,1.8,2470.73,13.29,0.023,154.5
2022-03-02T04:58:03,42.805,6.029,-0.003,-0.02,-0.029,104.0,103.0,102.0,13.4,1505.2,328.9,-0.7,1.8,2470.75,13.28,0.02,188.5
2022-03-02T05:04:03,42.805,6.029,0.005,-0.036,-0.037,103.0,103.0,102.0,13.4,1505.2,323.1,-0.8,1.8,2470.808,13.28,0.036,172.1
2022-03-02T05:07:03,42.805,6.029,0.013,-0.019,-0.019,105.0,104.0,102.0,13.4,1505.2,325.2,-0.8,1.9,2470.811,13.28,0.023,145.6
2022-03-02T05:10:03,42.805,6.029,-0.011,-0.021,-0.013,104.0,104.0,102.0,13.4,1505.2,329.6,-0.8,1.8,2470.797,13.28,0.023,207.6
2022-03-02T05:13:03,42.805,6.029,-0.002,-0.012,-0.028,105.0,104.0,101.0,13.4,1505.2,329.0,-0.8,1.8,2470.783,13.28,0.012,189.5
2022-03-02T05:16:03,42.805,6.029,-0.012,0.0,-0.012,104.0,104.0,102.0,13.4,1505.2,325.4,-0.8,1.8,2470.795,13.28,0.012,270.0
2022-03-02T05:19:03,42.805,6.029,0.003,-0.014,-0.012,104.0,104.0,102.0,13.4,1505.2,329.5,-0.7,1.8,2470.783,13.28,0.014,167.9
2022-03-02T05:22:03,42.805,6.029,0.018,-0.028,-0.011,104.0,103.0,103.0,13.4,1505.2,328.6,-0.8,1.8,2470.817,13.28,0.033,147.3
2022-03-02T05:25:03,42.805,6.029,-0.005,-0.016,-0.021,105.0,104.0,102.0,13.4,1505.2,322.9,-0.8,1.8,2470.797,13.28,0.016,197.4
2022-03-02T05:28:03,42.805,6.029,-0.007,-0.028,-0.012,105.0,106.0,103.0,13.4,1505.2,332.3,-0.7,1.8,2470.824,13.28,0.028,194.0
2022-03-02T05:31:03,42.805,6.029,-0.017,-0.02,-0.024,105.0,104.0,102.0,13.4,1505.2,329.3,-0.8,1.8,2470.772,13.28,0.026,220.4
2022-03-02T05:34:03,42.805,6.029,-0.005,-0.017,-0.033,103.0,105.0,102.0,13.4,1505.2,329.7,-0.8,1.8,2470.841,13.28,0.017,196.4
2022-03-02T05:37:03,42.805,6.029,-0.006,-0.012,-0.023,104.0,104.0,102.0,13.3,1505.2,328.4,-0.8,1.8,2470.794,13.28,0.013,206.6
2022-03-02T05:40:03,42.805,6.029,0.026,-0.031,-0.011,104.0,104.0,102.0,13.3,1505.2,329.1,-0.7,1.8,2470.765,13.28,0.04,140.0
2022-03-02T05:43:03,42.805,6.029,-0.012,-0.003,-0.004,104.0,105.0,102.0,13.4,1505.2,326.2,-0.7,1.9,2470.771,13.28,0.012,256.0
2022-03-02T05:46:03,42.805,6.029,0.027,-0.019,-0.008,104.0,104.0,102.0,13.4,1505.2,326.4,-0.7,1.8,2470.809,13.28,0.033,125.1
2022-03-02T05:49:03,42.805,6.029,-0.002,-0.029,-0.019,104.0,104.0,102.0,13.4,1505.2,330.4,-0.8,1.8,2470.852,13.28,0.029,183.9
2022-03-02T05:52:03,42.805,6.029,-0.003,-0.019,-0.01,104.0,104.0,103.0,13.4,1505.2,327.9,-0.8,1.8,2470.824,13.28,0.019,189.0
2022-03-02T05:55:03,42.805,6.029,-0.001,-0.013,-0.016,104.0,104.0,102.0,13.4,1505.2,331.2,-0.8,1.8,2470.808,13.28,0.013,184.4
2022-03-02T05:58:03,42.805,6.029,0.0,-0.036,-0.037,104.0,103.0,102.0,13.4,1505.2,329.0,-0.8,1.9,2470.818,13.28,0.036,180.0
2022-03-02T06:04:03,42.805,6.029,0.005,-0.01,-0.002,104.0,104.0,102.0,13.4,1505.2,326.3,-0.8,1.8,2470.87,13.28,0.011,153.4
2022-03-02T06:07:03,42.805,6.029,-0.006,-0.019,-0.008,103.0,104.0,101.0,13.4,1505.2,323.6,-0.7,1.8,2470.872,13.28,0.019,197.5
2022-03-02T06:10:03,42.805,6.029,-0.022,-0.031,-0.039,104.0,104.0,101.0,13.3,1505.2,327.7,-0.8,1.8,2470.856,13.28,0.038,215.4
2022-03-02T06:13:03,42.805,6.029,-0.015,-0.01,-0.054,104.0,104.0,102.0,13.4,1505.2,329.7,-0.7,1.8,2470.832,13.28,0.018,236.3
2022-03-02T06:16:03,42.805,6.029,0.0,-0.018,-0.002,104.0,103.0,102.0,13.4,1505.2,323.9,-0.8,1.8,2470.862,13.28,0.018,180.0
2022-03-02T06:19:03,42.805,6.029,0.0,-0.04,-0.024,105.0,105.0,102.0,13.3,1505.2,328.9,-0.8,1.8,2470.841,13.28,0.04,180.0
2022-03-02T06:22:03,42.805,6.029,-0.003,-0.017,0.007,103.0,105.0,101.0,13.4,1505.2,330.2,-0.7,1.8,2470.885,13.28,0.017,190.0
2022-03-02T06:25:03,42.805,6.029,0.005,-0.029,0.0,104.0,103.0,102.0,13.4,1505.2,326.1,-0.7,1.8,2470.821,13.28,0.029,170.2
2022-03-02T06:28:03,42.805,6.029,-0.026,-0.016,0.019,105.0,104.0,102.0,13.4,1505.2,325.9,-0.7,1.8,2470.862,13.28,0.03,238.4
2022-03-02T06:31:03,42.805,6.029,0.008,-0.024,-0.016,104.0,104.0,101.0,13.4,1505.2,328.8,-0.8,1.8,2470.88,13.28,0.025,161.6
2022-03-02T06:34:03,42.805,6.029,-0.016,-0.019,-0.03,102.0,104.0,103.0,13.4,1505.2,329.2,-0.8,1.8,2470.875,13.28,0.024,220.1
2022-03-02T06:37:03,42.805,6.029,-0.007,-0.028,-0.027,102.0,103.0,103.0,13.3,1505.2,323.8,-0.8,1.8,2470.827,13.28,0.028,194.0
2022-03-02T06:40:03,42.805,6.029,-0.007,-0.011,-0.001,103.0,104.0,102.0,13.4,1505.2,324.6,-0.8,1.8,2470.841,13.28,0.013,212.5
2022-03-02T06:43:03,42.805,6.029,0.002,-0.022,-0.044,105.0,103.0,104.0,13.3,1505.2,331.1,-0.8,1.8,2470.845,13.28,0.022,174.8
2022-03-02T06:46:03,42.805,6.029,0.028,-0.004,0.007,104.0,105.0,101.0,13.4,1505.2,330.9,-0.7,1.8,2470.841,13.28,0.028,98.1
2022-03-02T06:49:03,42.805,6.029,-0.007,-0.025,-0.013,104.0,103.0,102.0,13.4,1505.2,330.9,-0.8,1.8,2470.822,13.28,0.025,195.6
2022-03-02T06:52:03,42.805,6.029,0.006,-0.028,-0.011,105.0,103.0,102.0,13.4,1505.2,328.0,-0.8,1.8,2470.842,13.28,0.028,167.9
2022-03-02T06:55:03,42.805,6.029,0.005,-0.021,-0.007,105.0,102.0,102.0,13.4,1505.2,324.2,-0.8,1.8,2470.826,13.28,0.021,166.6
2022-03-02T06:58:03,42.805,6.029,-0.019,-0.026,-0.048,105.0,103.0,102.0,13.4,1505.2,326.7,-0.8,1.8,2470.846,13.28,0.032,216.2
2022-03-02T07:04:03,42.805,6.029,-0.009,-0.02,-0.035,102.0,104.0,102.0,13.4,1505.2,325.6,-0.7,1.8,2470.925,13.28,0.021,204.2
2022-03-02T07:07:03,42.805,6.029,0.027,-0.019,-0.017,105.0,103.0,101.0,13.4,1505.2,325.0,-0.8,1.8,2470.868,13.28,0.033,125.1
2022-03-02T07:10:03,42.805,6.029,0.0,-0.024,-0.025,103.0,104.0,102.0,13.4,1505.2,327.7,-0.8,1.8,2470.894,13.28,0.024,180.0
2022-03-02T07:13:03,42.805,6.029,-0.002,-0.023,-0.016,105.0,102.0,103.0,13.3,1505.2,328.3,-0.8,1.8,2470.846,13.28,0.023,185.0
2022-03-02T07:16:03,42.805,6.029,0.002,-0.029,-0.015,103.0,104.0,101.0,13.3,1505.2,324.5,-0.8,1.8,2470.916,13.28,0.029,176.1
2022-03-02T07:19:03,42.805,6.029,-0.004,-0.014,0.041,103.0,103.0,103.0,13.4,1505.2,324.5,-0.7,1.8,2470.833,13.28,0.014,195.9
2022-03-02T07:22:03,42.805,6.029,-0.03,-0.043,-0.035,104.0,103.0,102.0,13.3,1505.2,328.9,-0.8,1.8,2470.861,13.28,0.052,214.9
2022-03-02T07:25:03,42.805,6.029,-0.02,-0.009,0.004,103.0,102.0,102.0,13.4,1505.2,329.8,-0.7,1.8,2470.873,13.28,0.021,245.8
2022-03-02T07:28:03,42.805,6.029,-0.012,-0.012,0.004,105.0,102.0,102.0,13.4,1505.2,328.5,-0.8,1.8,2470.879,13.28,0.016,225.0
2022-03-02T07:31:03,42.805,6.029,0.019,-0.028,-0.014,104.0,104.0,102.0,13.3,1505.2,326.1,-0.8,1.9,2470.855,13.28,0.033,145.8
2022-03-02T07:34:03,42.805,6.029,0.001,-0.024,-0.017,104.0,104.0,103.0,13.4,1505.2,324.8,-0.7,1.8,2470.862,13.28,0.024,177.6
2022-03-02T07:37:03,42.805,6.029,-0.02,-0.016,-0.01,103.0,103.0,102.0,13.3,1505.2,328.0,-0.8,1.8,2470.863,13.28,0.025,231.3
2022-03-02T07:40:03,42.805,6.029,-0.012,-0.021,-0.03,105.0,103.0,102.0,13.3,1505.2,324.0,-0.8,1.9,2470.876,13.28,0.024,209.7
2022-03-02T07:43:03,42.805,6.029,-0.007,-0.023,-0.02,103.0,103.0,101.0,13.4,1505.2,328.8,-0.8,1.8,2470.834,13.28,0.024,196.9
2022-03-02T07:46:03,42.805,6.029,0.003,-0.006,0.022,104.0,102.0,103.0,13.4,1505.2,327.4,-0.7,1.9,2470.856,13.29,0.006,153.4
2022-03-02T07:49:03,42.805,6.029,-0.008,-0.037,-0.02,104.0,102.0,101.0,13.4,1505.2,332.6,-0.7,1.8,2470.85,13.29,0.037,192.2
2022-03-02T07:52:03,42.805,6.029,-0.006,-0.003,-0.018,104.0,103.0,101.0,13.4,1505.2,323.6,-0.7,1.8,2470.859,13.28,0.006,243.4
2022-03-02T07:55:03,42.805,6.029,-0.024,-0.022,-0.001,103.0,103.0,101.0,13.4,1505.2,329.1,-0.7,1.8,2470.867,13.29,0.032,227.5
2022-03-02T07:58:03,42.805,6.029,-0.029,-0.013,-0.024,104.0,104.0,102.0,13.4,1505.2,331.9,-0.7,1.8,2470.842,13.28,0.031,245.9
2022-03-02T08:04:03,42.805,6.029,-0.019,-0.024,0.003,104.0,103.0,104.0,13.4,1505.2,330.7,-0.8,1.8,2470.908,13.28,0.03,218.4
2022-03-02T08:07:03,42.805,6.029,-0.044,-0.017,-0.055,104.0,102.0,102.0,13.4,1505.2,328.9,-0.7,1.8,2470.88,13.28,0.047,248.9
2022-03-02T08:10:03,42.805,6.029,-0.002,-0.001,-0.014,103.0,103.0,103.0,13.3,1505.2,323.5,-0.7,1.8,2470.878,13.28,0.002,243.4
2022-03-02T08:13:03,42.805,6.029,0.007,-0.019,-0.009,103.0,103.0,102.0,13.4,1505.2,327.3,-0.8,1.8,2470.858,13.28,0.02,159.8
2022-03-02T08:16:03,42.805,6.029,-0.005,-0.027,0.009,104.0,103.0,102.0,13.4,1505.2,328.3,-0.7,1.8,2470.863,13.28,0.027,190.5
2022-03-02T08:19:03,42.805,6.029,-0.005,-0.015,-0.017,105.0,104.0,102.0,13.4,1505.2,325.4,-0.8,1.9,2470.861,13.28,0.015,198.4
2022-03-02T08:22:03,42.805,6.029,-0.029,-0.034,-0.025,104.0,104.0,102.0,13.4,1505.2,331.4,-0.8,1.8,2470.88,13.28,0.044,220.5
2022-03-02T08:25:03,42.805,6.029,-0.007,-0.033,-0.009,104.0,104.0,102.0,13.4,1505.2,328.6,-0.8,1.8,2470.876,13.28,0.033,192.0
2022-03-02T08:28:03,42.805,6.029,-0.017,-0.008,-0.004,105.0,104.0,102.0,13.4,1505.2,331.2,-0.8,1.8,2470.864,13.28,0.018,244.8
2022-03-02T08:31:03,42.805,6.029,0.002,-0.019,-0.03,103.0,103.0,103.0,13.4,1505.2,327.8,-0.8,1.8,2470.832,13.28,0.019,174.0
2022-03-02T08:34:03,42.805,6.029,-0.008,-0.014,-0.01,104.0,104.0,102.0,13.4,1505.2,328.6,-0.7,1.8,2470.854,13.29,0.016,209.7
2022-03-02T08:37:03,42.805,6.029,-0.003,-0.004,-0.022,104.0,103.0,102.0,13.4,1505.2,327.4,-0.7,1.8,2470.824,13.29,0.005,216.9
2022-03-02T08:40:03,42.805,6.029,-0.019,-0.011,-0.037,105.0,103.0,102.0,13.3,1505.2,328.1,-0.7,1.8,2470.812,13.29,0.021,239.9
2022-03-02T08:43:03,42.805,6.029,0.004,-0.015,-0.003,104.0,104.0,102.0,13.4,1505.2,329.3,-0.8,1.8,2470.822,13.29,0.015,165.1
2022-03-02T08:46:03,42.805,6.029,-0.014,-0.027,-0.024,105.0,105.0,102.0,13.4,1505.2,327.9,-0.7,1.8,2470.826,13.29,0.03,207.4
2022-03-02T08:49:03,42.805,6.029,-0.003,-0.013,-0.009,106.0,104.0,102.0,13.4,1505.2,327.7,-0.8,1.8,2470.825,13.29,0.013,193.0
2022-03-02T08:52:03,42.805,6.029,0.0,-0.028,-0.003,105.0,104.0,103.0,13.4,1505.2,330.9,-0.8,1.8,2470.83,13.28,0.028,180.0
2022-03-02T08:55:03,42.805,6.029,-0.001,-0.008,-0.034,103.0,103.0,103.0,13.3,1505.2,328.7,-0.7,1.8,2470.819,13.29,0.008,187.1
2022-03-02T08:58:03,42.805,6.029,0.002,-0.033,-0.017,104.0,103.0,102.0,13.4,1505.2,323.6,-0.8,1.8,2470.833,13.28,0.033,176.5
2022-03-02T09:04:03,42.805,6.029,-0.014,-0.013,-0.003,104.0,104.0,102.0,13.3,1505.2,327.8,-0.8,1.8,2470.88,13.28,0.019,227.1
2022-03-02T09:07:03,42.805,6.029,-0.021,-0.021,-0.012,103.0,104.0,103.0,13.3,1505.2,330.2,-0.8,1.8,2470.865,13.28,0.029,225.0
2022-03-02T09:10:03,42.805,6.029,0.012,-0.021,-0.006,104.0,104.0,102.0,13.4,1505.2,328.6,-0.8,1.9,2470.866,13.28,0.024,150.3
2022-03-02T09:13:03,42.805,6.029,-0.009,-0.023,0.004,105.0,103.0,102.0,13.4,1505.2,327.7,-0.8,1.8,2470.829,13.28,0.024,201.4
2022-03-02T09:16:03,42.805,6.029,-0.016,-0.018,-0.008,104.0,103.0,102.0,13.4,1505.2,328.7,-0.8,1.8,2470.83,13.28,0.024,221.6
2022-03-02T09:19:03,42.805,6.029,-0.023,-0.017,-0.035,104.0,105.0,102.0,13.4,1505.2,325.1,-0.7,1.8,2470.838,13.28,0.028,233.5
2022-03-02T09:22:03,42.805,6.029,0.005,-0.018,0.017,104.0,104.0,103.0,13.4,1505.2,326.3,-0.7,1.8,2470.852,13.29,0.018,164.5
2022-03-02T09:25:03,42.805,6.029,-0.013,-0.032,-0.039,104.0,104.0,102.0,13.4,1505.2,328.3,-0.8,1.8,2470.822,13.29,0.034,202.1
2022-03-02T09:28:03,42.805,6.029,-0.019,-0.025,-0.018,104.0,105.0,104.0,13.4,1505.2,322.9,-0.7,1.8,2470.796,13.29,0.031,217.2
2022-03-02T09:31:03,42.805,6.029,-0.013,-0.006,0.0,103.0,104.0,102.0,13.3,1505.2,327.2,-0.8,1.8,2470.833,13.29,0.014,245.2
2022-03-02T09:34:03,42.805,6.029,-0.027,-0.029,-0.045,104.0,103.0,102.0,13.4,1505.2,329.6,-0.8,1.8,2470.8,13.29,0.039,223.0
2022-03-02T09:37:03,42.805,6.029,-0.019,0.002,-0.04,103.0,104.0,102.0,13.3,1505.2,330.7,-0.7,1.8,2470.777,13.29,0.019,276.0
2022-03-02T09:40:03,42.805,6.029,-0.018,0.01,0.005,104.0,103.0,102.0,13.3,1505.2,328.4,-0.8,1.8,2470.82,13.29,0.02,299.1
2022-03-02T09:43:03,42.805,6.029,-0.019,-0.021,-0.017,104.0,104.0,102.0,13.4,1505.2,325.8,-0.7,1.8,2470.797,13.29,0.028,222.1
2022-03-02T09:46:03,42.805,6.029,-0.016,-0.024,-0.017,104.0,104.0,102.0,13.4,1505.2,327.5,-0.8,1.8,2470.778,13.29,0.028,213.7
2022-03-02T09:49:03,42.805,6.029,-0.006,-0.02,-0.045,104.0,103.0,102.0,13.4,1505.2,329.3,-0.8,1.8,2470.82,13.29,0.02,196.7
2022-03-02T09:52:03,42.805,6.029,-0.018,-0.005,-0.041,104.0,103.0,102.0,13.4,1505.2,328.6,-0.7,1.8,2470.817,13.29,0.018,254.5